AirNav   ATP
 
 728 users online  

KCCB Cable Airport
Upland, California, USA

GOING TO UPLAND?


FAA INFORMATION EFFECTIVE 16 AUGUST 2018

Location

FAA Identifier: CCB
Lat/Long: 34-06-41.8000N / 117-41-14.6000W
34-06.696667N / 117-41.243333W
34.1116111 / -117.6873889
(estimated)
Elevation: 1443.5 ft. / 440.0 m (surveyed)
Variation: 14E (2000)
From city: 2 miles NW of UPLAND, CA
Time zone: UTC -7 (UTC -8 during Standard Time)
Zip code: 91786

Airport Operations

Airport use: Open to the public
Activation date: 09/1945
Control tower: no
ARTCC: LOS ANGELES CENTER
FSS: RIVERSIDE FLIGHT SERVICE STATION
NOTAMs facility: RAL (NOTAM-D service available)
Attendance: DAYLIGHT HOURS
Pattern altitude: 2243.5 ft. MSL
Wind indicator: lighted
Segmented circle: no
Lights: ACTVT RY H1 PERIMETER LGTS - CTAF. MIRL RY 06/24 PRESET ON LOW INTST DUSK TILL 2200; AFTER 2200 ACTVT - CTAF.
Beacon: white-green (lighted land airport)
Operates sunset to sunrise.

Airport Communications

CTAF/UNICOM: 123.0
WX AWOS-3P: 119.525 (909-985-4731)
SOCAL APPROACH: 125.5
SOCAL DEPARTURE: 125.5
WX AWOS-3PT at POC (5 nm W): 124.4 (909-596-1523)
WX ASOS at ONT (5 nm SE): PHONE 909-937-2186
WX ASOS at CNO (9 nm S): PHONE 909-393-5823
WX AWOS-3PT at AJO (14 nm S): 132.175 (951-340-4764)
WX ASOS at RAL (15 nm SE): PHONE 951-352-4392
WX AWOS-3PT at EMT (17 nm W): 118.75 ((626) 444-1107)
  • FOR CLNC DEL CALL SOCAL APCH (800) 448-3724.

Nearby radio navigation aids

VOR radial/distance  VOR name  Freq  Var
POMr053/5.3POMONA VORTAC110.4015E
PDZr311/14.0PARADISE VORTAC112.2015E
RALr294/(15.1)RIVERSIDE VOR112.4014E
ELBr351/26.2EL TORO VOR/DME117.2014E
SLIr028/26.9SEAL BEACH VORTAC115.7015E
HDFr295/(32.1)HOMELAND VOR113.4014E
VCVr193/32.5VICTORVILLE VOR/DME109.0514E
PMDr134/36.3PALMDALE VORTAC114.5015E
LAXr059/38.5LOS ANGELES VORTAC113.6015E
SMOr066/38.7SANTA MONICA VOR/DME110.8015E

 
NDB name  Hdg/Dist  Freq  Var  ID
EL MONTE070/17.135915EEMT . -- -

Airport Services

Fuel available: 100LL JET-A
SELF SERVICE 24 HOUR
Parking: tiedowns
Airframe service: MAJOR
Powerplant service: MAJOR
Bottled oxygen: HIGH/LOW
Bulk oxygen: HIGH/LOW

Runway Information

Runway 6/24

Dimensions: 3863 x 75 ft. / 1177 x 23 m
Surface: asphalt, in excellent condition
Weight bearing capacity: 
Single wheel: 20.0, GROSS PAVEMENT STRENGTH PRVDD BY ARPT OPERATOR 12500 LBS.
Runway edge lights: medium intensity
RUNWAY 6  RUNWAY 24
Latitude: 34-06.583090N34-06.809947N
Longitude: 117-41.600965W117-40.885618W
Elevation: 1393.0 ft.1443.5 ft.
Gradient: 1.3% UP1.5%
Traffic pattern: leftleft
Runway heading: 055 magnetic, 069 true235 magnetic, 249 true
Displaced threshold: 106 ft.157 ft.
Markings: nonprecision, in good conditionbasic, in good condition
Visual slope indicator: 2-box VASI on left (4.00 degrees glide path)2-box VASI on right (4.00 degrees glide path)
RWY 24 VASI UNUSBL BYD 5 DEG R AND 9 DEG L OF CNTRLN.
Runway end identifier lights: nono
Touchdown point: yes, no lightsyes, no lights
Obstructions: none9 ft. road, 200 ft. from runway
+6 FT FENCE WITH RED LGTS 50 FT FM THLD 125 FT LEFT.

Helipad H1

Dimensions: 65 x 65 ft. / 20 x 20 m
Surface: asphalt, in good condition
Runway edge lights: PERI
Traffic pattern: leftleft

Helipad H2

Dimensions: 65 x 65 ft. / 20 x 20 m
Surface: asphalt/concrete, in good condition
Traffic pattern: leftleft

Airport Ownership and Management from official FAA records

Ownership: Privately-owned
Owner: CABLE LAND CO - A PARTNERSHIP
1749 WEST 13TH STREET
UPLAND, CA 91786-2199
Phone 909-982-6021
Manager: STEPHEN DUNN
1749 WEST 13TH STREET
UPLAND, CA 91786-2199
Phone 909-982-6021

Airport Operational Statistics

Aircraft based on the field: 227
Single engine airplanes: 214
Multi engine airplanes: 8
Helicopters: 2
Gliders airplanes: 2
Ultralights: 1
    
Aircraft operations: avg 252/day *
80% local general aviation
20% transient general aviation
* for 12-month period ending 31 August 2016

Instrument Procedures

NOTE: All procedures below are presented as PDF files. If you need a reader for these files, you should download the free Adobe Reader.

NOT FOR NAVIGATION. Please procure official charts for flight.
FAA instrument procedures published for use from 16 August 2018 at 0901Z to 13 September 2018 at 0900Z.

 
IAPs - Instrument Approach Procedures
RNAV (GPS) RWY 06 **CHANGED**   download (283KB)
VOR-A   download (273KB)
NOTE: Special Take-Off Minimums/Departure Procedures apply **CHANGED**   download (211KB)

Other nearby airports with instrument procedures:

KPOC - Brackett Field Airport (5 nm W)
KONT - Ontario International Airport (5 nm SE)
KCNO - Chino Airport (9 nm S)
KAJO - Corona Municipal Airport (14 nm S)
KRAL - Riverside Municipal Airport (15 nm SE)
KRIR - Flabob Airport (16 nm SE)
KEMT - San Gabriel Valley Airport (17 nm W)
 
Loc | Ops | Rwys | IFR | FBO | Links
Com | Nav | Svcs | Stats | Notes

San Bernardino International Airport Authority
 
Area around KCCB (Cable Airport)
 
Road maps at: MapQuest Bing Google
 
Aerial photo
WARNING: Photo may not be current or correct
Aerial photo of KCCB (Cable Airport)
Photo courtesy of focalflight.com
Photo taken 05-Jun-2017
looking north.

Do you have a better or more recent aerial photo of Cable Airport that you would like to share? If so, please send us your photo.

 
Sectional chart

 
Airport distance calculator
Flying to Cable Airport? Find the distance to fly.

From to KCCB

Sunrise and sunset
Times for 17-Aug-2018
 Local
(UTC-7)
 Zulu
(UTC)
Morning civil twilight05:4812:48
Sunrise06:1513:15
Sunset19:3502:35
Evening civil twilight20:0103:01

Current date and time
Zulu (UTC)  18-Aug-2018 03:49:49
Local (UTC-7)  17-Aug-2018 20:49:49
 
METAR
KCCB  119.525 909-985-4731
180335Z AUTO 26011KT 10SM 26/17 A3003 RMK AO2
KPOC 
4nm W 
171947Z 25010KT 7SM CLR 30/19 A3007
KONT 
6nm SE 
180253Z 26013KT 10SM FEW250 28/18 A3000 RMK AO2 SLP143 T02780183 53007
KCNO 
8nm SE 
180253Z 25011KT 10SM FEW120 27/20 A3001 RMK AO2 SLP155 T02720200 53008
KAJO 
14nm S 
180256Z AUTO 29013KT 10SM CLR 27/19 A2999 RMK AO2 SLP160 T02670194 53008 $
KRAL 
15nm SE 
180253Z AUTO 28007KT 10SM CLR 27/19 A3001 RMK AO2 SLP144 T02720189 53009
KEMT 
17nm W 
172145Z 22009KT 10SM CLR 32/19 A2999
TAF
KONT 
6nm SE 
171747Z 1718/1824 VRB05KT 4SM HZ FEW100 FM172000 26012KT P6SM SCT100 FM180600 VRB04KT P6SM SKC FM182000 26012KT P6SM SCT100
NOTAMs
Click for the latest NOTAMs
NOTAMs are issued by the DoD/FAA and will open in a separate window not controlled by AirNav.

 

 
 

FBO, Fuel Providers, and Aircraft Ground Support

  
 Business Name 
 
 Contact 
 
 Services / Description 
 
Fuel Prices
 
Comments
  
Cable Airport 909-982-6021
no information available

If you are affiliated with Cable Airport and would like to show here your services, contact info, web link, logo, and more, click here
100LL Jet A
SS $4.57 $3.76 
 Updated 10-Aug-2018
 
   1 read write
SS=Self service
Update Fuel Prices
 

Where to Eat: Catering, Restaurants, Food shops

  
 Business Name 
 
 Contact 
 
 Services / Description 
 
Distance
 
Comments
  
Maniac Mike's Cafe 909-982-9886
no information available

If you are affiliated with Maniac Mike's Cafe and would like to show here your services, contact info, web link, logo, and more, click here
on airport  
   2 read write
 

Would you like to see your business listed on this page?

 If your business provides an interesting product or service to pilots, flight crews, aircraft, or users of the Cable Airport, you should consider listing it here.  To start the listing process, click on the button below
 
Add a business
 

Other Pages about Cable Airport

www.cableairport.com
philtilden.com/...
 
Update a link
 
Copyright © AirNav, LLC. All rights reserved. Privacy Policy  Contact